Regional Weather Roundup
Issued by NWS Newport/Morehead, NC

Current Version | Previous Version | Text Only | Print | Product List | Glossary Off
Versions: 1 2 3 4 5 6 7 8 9 10 11 12 13 14 15 16 17 18 19 20 21 22 23 24 25 26 27 28 29 30 31 32 33 34 35 36 37 38 39 40 41 42 43 44 45 46 47 48 49 50
000 ASUS42 KMHX 211925 RWRMHX WEATHER ROUNDUP FOR EASTERN NORTH CAROLINA NATIONAL WEATHER SERVICE NEWPORT/MOREHEAD CITY NC 300 PM EDT SAT OCT 21 2017 NOTE: "FAIR" INDICATES FEW OR NO CLOUDS BELOW 12,000 FEET WITH NO SIGNIFICANT WEATHER AND/OR OBSTRUCTIONS TO VISIBILITY NCZ015>017-031-032-045>047-102-103-212000- NORTH COAST CITY SKY/WX TMP DP RH WIND PRES REMARKS EDENTON SUNNY 76 57 50 CALM 30.31F ELIZABETH CITY SUNNY 77 56 48 E8 30.31S KITTY HAWK CLEAR 72 58 61 CALM 30.31S MANTEO SUNNY N/A N/A N/A E8 30.32S $$ NCZ045>047-081-094-103-104-212000- CENTRAL COAST CITY SKY/WX TMP DP RH WIND PRES REMARKS FRISCO SUNNY 75 61 61 VRB3 30.31F $$ NCZ095-097-098-100-101-212000- SOUTHERN COAST CITY SKY/WX TMP DP RH WIND PRES REMARKS BEAUFORT SUNNY 76 57 51 SE8 30.30S CEDAR ISLAND NOT AVBL JACKSONVILLE MOSUNNY 78 52 40 CALM 30.29F PINEY ISLAND N/A N/A N/A N/A NE9 30.30F WILMINGTON SUNNY 77 58 51 SE8 30.29F $$ NCZ011>013-027>030-043-044-078>080-089-090>093-098-212000- COASTAL PLAIN CITY SKY/WX TMP DP RH WIND PRES REMARKS AHOSKIE SUNNY 76 53 44 CALM 30.31R CLINTON SUNNY 80 55 41 E5 30.29F ELIZABETHTOWN NOT AVBL GOLDSBORO SUNNY 80 49 34 N3 30.28F GREENVILLE SUNNY 79 54 41 CALM 30.31S HAVELOCK SUNNY 77 56 48 NE9 30.31S KENANSVILLE SUNNY 79 52 38 E6 30.30S KINSTON SUNNY 79 50 36 S6 30.30F NEW BERN SUNNY 77 55 46 VRB6 30.31F RICHLANDS SUNNY 78 53 41 E6 30.30F ROCKY MOUNT SUNNY 77 54 44 CALM 30.30F WASHINGTON SUNNY 77 54 44 N3 30.30F WHITEVILLE SUNNY 79 50 36 CALM 30.27F $$ AMZ130-135-150-152-154-156-158-170-250-252-270-ANZ085-086-088-633-658-670-212000- MARINE OBSERVATIONS STATION/POSITION TIME TEMP WIND PRES WAVE SWELL AIR SEA DIR/SP/G HT/PER HT/PER (UTC) (F) (DEG/KT/KT) (MB) (FT/S) (FT/S) CHESAPEAKE LIGHT NOT AVBL 64 E VA BEACH 1850 68 70 30/ 6/ 8 1027.1 2/ 8 2/ 8 DUCK 1900 70 70 60/ 9/ 9 1026.3 2 E DUCK 1900 71 N/A 2/ 8 OREGON INLET 1900 70 70 40/ 7/ 10 1026.3 13E OREGON INLT 1848 72 N/A 3/ 8 2/ 8 HATTERAS CG 1900 71 72 30/ 7/ 12 1026.2 DIAMOND BUOY 1850 73 81 360/ 12/ 16 1025.9 3/ 9 3/ 9 CAPE LOOKOUT 1900 72 50/ 11/ 13 1025.8 BEAUFORT LAB 1900 74 72 120/ 7/ 9 1026.1 30 SE NEW RVR IN 1908 74 50/ 10/ 14 1025.7 30 SE NEW RVR IN NOT AVBL 27 SE WRIGHTSVLE 1908 74 76 80/ 10/ 16 1025.9 5 SE WRIGHTSVLE 1908 74 74 90/ 10/ 14 1025.8 225 S CAPE HAT 1850 77 80 70/ 12/ 16 1024.0 4/ 8 3/ 8 41 SE CHARLESTON 1910 77 80 40/ 16/ 19 1024.0 $$

USA.gov is the U.S. government's official web portal to all federal, state and local government web resources and services.